324  
NZUS59 KLOT 241359  
HRRLOT  
 
CHICAGO AREA WEATHER ROUNDUP  
NATIONAL WEATHER SERVICE CHICAGO/ROMEOVILLE IL  
900 AM CDT MON SEP 24 2018  
 
NOTE: "FAIR" INDICATES FEW OR NO CLOUDS BELOW 12,000 FEET WITH NO  
SIGNIFICANT WEATHER AND/OR OBSTRUCTIONS TO VISIBILITY.  
 
* THESE STATIONS ARE NOT UNDER NWS QUALITY CONTROL. THEY ALSO MAY NOT  
REPORT WEATHER SUCH AS PRECIPITATION OR FOG.  
 
ILZ005-006-012>014-019>023-241500-  
NORTHEAST ILLINOIS  
 
CITY SKY/WX TMP DP RH WIND PRES REMARKS  
OHARE N/A 65 56 72 E7 30.07F  
MIDWAY NOT AVBL  
AURORA NOT AVBL  
WAUKEGAN NOT AVBL  
DUPAGE AIRPORT NOT AVBL  
WHEELING NOT AVBL  
NORTHERLY ISL N/A 65 57 75 E10 N/A  
NORTHERLY IS NOT AVBL  
NORTHERLY ISL NOT AVBL  

 
 
WIZ051-052-058>065-066-070>072-241500-  
SOUTHEAST WISCONSIN  
 
CITY SKY/WX TMP DP RH WIND PRES REMARKS  
MILWAUKEE NOT AVBL  
WAUKESHA SUNNY 61 57 88 E8 30.12F  

 
 
INZ001>003-010>013-019-020-241500-  
NORTHWEST INDIANA  
 
CITY SKY/WX TMP DP RH WIND PRES REMARKS  
GARY* MOSUNNY 63 59 88 E8 30.08F  
MICHIGAN CITY* NOT AVBL  
RENSSELAER* NOT AVBL  

 
 
LMZ740>746-241500-  
SOUTHERN LAKE MICHIGAN  
 
STATION/POSITION TIME SKY/WX TEMP WIND PRES VSBY  
AIR DIR/SP/G  
(UTC) (F) (DEG/KT/KT) (MB) (MI)  
HARRISON CRIB 1330 65 130/ 14/ 15 N/A  
NORTHERLY ISL 1345 65 130/ 10/ 14 N/A  
CALUMET HARBOR 1330 62 1018.3F  
BURNS HARBOR 1340 63 150/ 7/ 9 1019.0F  
MICHIGAN CITY 1330 62 110/ 6/ 8 N/A  

 
 
ABBREVIATIONS USED IN REMARKS  
TC - TEMPERATURE IN CELSIUS  
WCI - WIND CHILL INDEX  
HX - HEAT INDEX  
VSB - VISIBILITY  

 
 
 
CLICK HERE TO GO TO PREVIOUS BULLETINS.

The Nexlab IL Page
The Nexlab IN Page Main Text Page